Change the Weather History Date:

Monday, December 17, 2012

  Actual Average (KHTL) Record (KHTL)
Temperature  
Mean Temperature 34 °F 23 °F  
Max Temperature 38 °F 30 °F 44 °F (2006)
Min Temperature 31 °F 17 °F -17 °F (1919)
Degree Days  
Heating Degree Days 30 42  
Month to date heating degree days 663  
Since 1 July heating degree days 2546  
Moisture  
Dew Point 35 °F    
Average Humidity 98    
Maximum Humidity 100    
Minimum Humidity 86    
Precipitation  
Precipitation 0.00 in 0.05 in 0.43 in (1921)
Month to date precipitation 0.98  
Year to date precipitation 28.08  
Snow  
Snow 0.00 in 0.50 in 2.50 in (1961)
Month to date snowfall 8.7  
Since 1 July snowfall 17.8  
Snow Depth -    
Sea Level Pressure  
Sea Level Pressure 29.63 in    
Wind  
Wind Speed 5 mph (WSW)    
Max Wind Speed 8 mph    
Max Gust Speed -    
Visibility 8 miles    
Events Rain , Snow    
T = Trace of Precipitation, MM = Missing Value Source: NWS Daily Summary

Daily Weather History Graph

Daily Weather History Graph

Search for Another Location

Airport or City:

Trip Planner

Search our weather history database for the weather conditions in past years. The results will help you decide how hot, cold, wet, or windy it might be!

Date:

Astronomy

Dec. 17, 2012 Rise Set
Actual Time 8:10 AM EST 4:59 PM EST
Civil Twilight 7:37 AM EST 5:33 PM EST
Nautical Twilight 7:00 AM EST 6:10 PM EST
Astronomical Twilight 6:24 AM EST 6:45 PM EST
Moon 11:08 AM EST (12/17) 10:32 PM EST (12/17)
Length of Visible Light 9h 56m
Length of Day
8h 48m
Waxing Crescent, 24% of the Moon is Illuminated
Dec 17
Waxing Crescent
Dec 20
First Quarter
Dec 28
Full
Jan 4
Last Quarter
Jan 11
New

Hourly Weather History & Observations

Time (EST) Temp. Windchill Dew Point Humidity Pressure Visibility Wind Dir Wind Speed Gust Speed Precip Events Conditions
12:15 AM 38.7 °F 34.3 °F 38.7 °F 100% 29.58 in 10.0 mi West 5.8 mph - N/A   Overcast
12:35 AM 38.3 °F 34.8 °F 38.3 °F 100% 29.58 in 10.0 mi WSW 4.6 mph - N/A   Overcast
1:15 AM 38.3 °F 34.8 °F 38.3 °F 100% 29.59 in 7.0 mi West 4.6 mph - N/A   Overcast
1:35 AM 38.3 °F 33.9 °F 38.3 °F 100% 29.59 in 2.0 mi West 5.8 mph - N/A   Overcast
1:55 AM 38.3 °F 33.2 °F 38.3 °F 100% 29.60 in 1.5 mi West 6.9 mph - N/A   Overcast
2:15 AM 38.3 °F 33.2 °F 38.3 °F 100% 29.60 in 7.0 mi West 6.9 mph - N/A Rain Rain
2:36 AM 37.6 °F 34.0 °F 37.6 °F 100% 29.61 in 10.0 mi West 4.6 mph - N/A   Light Drizzle
3:11 AM 38.3 °F 33.9 °F 38.3 °F 100% 29.61 in 10.0 mi West 5.8 mph - N/A   Overcast
3:31 AM 37.0 °F 31.6 °F 37.0 °F 100% 29.61 in 7.0 mi WSW 6.9 mph - N/A   Overcast
3:51 AM 38.3 °F 33.9 °F 38.3 °F 100% 29.61 in 5.0 mi West 5.8 mph - N/A   Overcast
4:11 AM 38.3 °F 33.2 °F 38.3 °F 100% 29.61 in 4.0 mi West 6.9 mph - N/A Rain Light Rain
4:31 AM 37.9 °F 34.4 °F 37.9 °F 100% 29.61 in 4.0 mi West 4.6 mph - N/A   Overcast
4:51 AM 37.0 °F 33.3 °F 37.0 °F 100% 29.61 in 3.0 mi WSW 4.6 mph - N/A Snow Light Snow
5:11 AM 36.5 °F 33.9 °F 36.5 °F 100% 29.62 in 5.0 mi WSW 3.5 mph - N/A   Overcast
5:32 AM 36.3 °F 32.5 °F 36.3 °F 100% 29.62 in 10.0 mi WSW 4.6 mph - N/A   Overcast
5:52 AM 35.8 °F 31.9 °F 35.8 °F 100% 29.61 in 3.0 mi WSW 4.6 mph - N/A Rain Light Rain
6:12 AM 35.8 °F 31.9 °F 35.8 °F 100% 29.61 in 5.0 mi West 4.6 mph - N/A   Overcast
6:32 AM 35.8 °F 30.9 °F 35.8 °F 100% 29.62 in 10.0 mi West 5.8 mph - N/A   Overcast
6:52 AM 35.8 °F 33.0 °F 35.8 °F 100% 29.63 in 10.0 mi WSW 3.5 mph - N/A   Overcast
7:12 AM 35.8 °F 33.0 °F 35.8 °F 100% 29.64 in 10.0 mi WSW 3.5 mph - N/A   Overcast
7:32 AM 35.8 °F 30.9 °F 35.8 °F 100% 29.65 in 10.0 mi WSW 5.8 mph - N/A Rain Rain
7:52 AM 35.8 °F 30.9 °F 35.8 °F 100% 29.66 in 10.0 mi WSW 5.8 mph - N/A   Overcast
8:12 AM 35.8 °F 30.9 °F 35.8 °F 100% 29.66 in 10.0 mi WSW 5.8 mph - N/A   Overcast
8:32 AM 35.8 °F 33.0 °F 35.8 °F 100% 29.67 in 7.0 mi SW 3.5 mph - N/A Rain Light Rain
8:52 AM 35.8 °F 31.9 °F 35.8 °F 100% 29.67 in 10.0 mi WSW 4.6 mph - N/A   Overcast
9:13 AM 35.8 °F 31.9 °F 35.8 °F 100% 29.67 in 10.0 mi WSW 4.6 mph - N/A   Overcast
9:33 AM 35.8 °F 30.9 °F 35.8 °F 100% 29.67 in 10.0 mi SW 5.8 mph - N/A   Overcast
9:53 AM 35.8 °F 30.1 °F 35.8 °F 100% 29.67 in 10.0 mi WSW 6.9 mph - N/A   Overcast
10:13 AM 35.8 °F 31.9 °F 35.8 °F 100% 29.66 in 10.0 mi WSW 4.6 mph - N/A   Overcast
10:33 AM 35.8 °F 30.9 °F 35.8 °F 100% 29.66 in 10.0 mi West 5.8 mph - N/A   Overcast
10:53 AM 36.7 °F 32.9 °F 36.0 °F 97% 29.66 in 10.0 mi WSW 4.6 mph - N/A   Overcast
11:13 AM 36.1 °F 29.9 °F 35.1 °F 96% 29.66 in 10.0 mi West 8.1 mph - N/A   Overcast
11:33 AM 36.7 °F 32.9 °F 34.2 °F 91% 29.65 in 10.0 mi West 4.6 mph - N/A   Overcast
11:53 AM 38.3 °F 33.2 °F 34.5 °F 86% 29.64 in 10.0 mi WNW 6.9 mph - N/A   Overcast
12:14 PM 38.3 °F 33.9 °F 34.3 °F 86% 29.64 in 10.0 mi WSW 5.8 mph - N/A   Overcast
12:34 PM 36.7 °F 32.9 °F 33.1 °F 87% 29.64 in 10.0 mi SW 4.6 mph - N/A   Overcast
12:54 PM 36.7 °F 32.0 °F 33.3 °F 87% 29.64 in 10.0 mi WSW 5.8 mph - N/A   Overcast
1:14 PM 34.0 °F - 33.1 °F 96% 29.64 in 1.8 mi Calm Calm - N/A Snow Light Snow
1:34 PM 35.6 °F 32.8 °F 35.4 °F 99% 29.62 in 5.0 mi WSW 3.5 mph - N/A Snow Light Snow
1:54 PM 36.3 °F 32.5 °F 35.2 °F 96% 29.62 in 10.0 mi West 4.6 mph - N/A   Overcast
2:14 PM 36.3 °F 33.7 °F 34.7 °F 94% 29.62 in 10.0 mi WSW 3.5 mph - N/A   Overcast
2:34 PM 35.8 °F 33.0 °F 34.2 °F 94% 29.62 in 10.0 mi West 3.5 mph - N/A   Overcast
2:55 PM 35.8 °F 33.0 °F 33.1 °F 90% 29.62 in 10.0 mi SW 3.5 mph - N/A   Overcast
3:15 PM 35.8 °F 33.0 °F 33.4 °F 91% 29.63 in 10.0 mi WSW 3.5 mph - N/A   Overcast
3:35 PM 35.8 °F - 34.0 °F 93% 29.63 in 10.0 mi Calm Calm - N/A   Overcast
3:55 PM 35.8 °F - 34.7 °F 96% 29.63 in 10.0 mi Calm Calm - N/A   Overcast
4:15 PM 35.8 °F 33.0 °F 34.9 °F 97% 29.64 in 10.0 mi SW 3.5 mph - N/A   Overcast
4:35 PM 35.8 °F 33.0 °F 34.7 °F 96% 29.64 in 10.0 mi SW 3.5 mph - N/A   Overcast
4:55 PM 35.8 °F 33.0 °F 34.2 °F 94% 29.64 in 10.0 mi WSW 3.5 mph - N/A   Overcast
7:31 PM 33.6 °F - 32.7 °F 96% 29.65 in 10.0 mi Calm Calm - N/A   Overcast
7:51 PM 33.3 °F - 32.5 °F 97% 29.64 in 10.0 mi Calm Calm - N/A   Overcast
8:11 PM 33.3 °F - 33.1 °F 99% 29.65 in 7.0 mi Calm Calm - N/A   Overcast
8:32 PM 32.5 °F - 32.5 °F 100% 29.64 in 4.0 mi Calm Calm - N/A   Overcast
8:52 PM 32.5 °F - 32.5 °F 100% 29.64 in 2.5 mi Calm Calm - N/A   Overcast
9:12 PM 31.1 °F - 31.1 °F 100% 29.64 in 2.5 mi Calm Calm - N/A   Overcast
9:32 PM 31.1 °F - 31.1 °F 100% 29.64 in 1.5 mi Calm Calm - N/A   Overcast
9:52 PM 33.3 °F - 33.3 °F 100% 29.63 in 2.5 mi Calm Calm - N/A   Overcast
10:13 PM 33.3 °F - 33.3 °F 100% 29.63 in 3.0 mi Calm Calm - N/A   Overcast
10:33 PM 33.3 °F - 33.3 °F 100% 29.64 in 2.5 mi Calm Calm - N/A   Overcast
10:53 PM 33.3 °F 30.2 °F 33.3 °F 100% 29.64 in 5.0 mi West 3.5 mph - N/A   Overcast
11:13 PM 33.3 °F 30.2 °F 33.3 °F 100% 29.64 in 7.0 mi WSW 3.5 mph - N/A   Overcast
11:33 PM 33.3 °F 30.2 °F 33.3 °F 100% 29.64 in 5.0 mi West 3.5 mph - N/A   Overcast
11:53 PM 33.3 °F - 33.3 °F 100% 29.65 in 5.0 mi Calm Calm - N/A   Overcast